This demonstration page uses our WeatherBlox Daily Observations layout. Learn more.

Left ArrowRight Arrow

Hourly Observations for March 11, 2015

Temp ( °F °C ) Dew Point ( °F °C ) Humidity (%) Winds ( mph kmh ) Pressure ( in mb ) Visibility ( mi km ) Precip ( " mm )
12:15 am 00:15 Cloudy with Fog 41 5 41 5 100 100 N N/A 30.03 1017 0 0 N/A
12:35 am 00:35 Cloudy with Fog 43 6 43 6 100 100 N N/A 30.03 1017 1 1 N/A
12:55 am 00:55 Cloudy with Mist and Fog 43 6 43 6 100 100 N N/A 30.03 1017 1 2 N/A
1:15 am 01:15 Cloudy with Fog 41 5 41 5 100 100 N N/A 30.03 1017 1 1 N/A
1:35 am 01:35 Cloudy with Mist and Fog 43 6 43 6 100 100 N N/A 30.03 1017 2 3 N/A
1:55 am 01:55 Cloudy with Mist and Fog 43 6 43 6 100 100 N N/A 30.03 1017 3 5 N/A
2:15 am 02:15 Cloudy with Mist and Fog 43 6 43 6 100 100 N 3 6 30.03 1017 3 5 N/A
2:35 am 02:35 Cloudy with Mist and Fog 43 6 43 6 100 100 N N/A 30.03 1017 3 5 N/A
2:55 am 02:55 Mostly Cloudy with Mist and Fog 43 6 43 6 100 100 N 6 9 30.03 1017 5 8 N/A
3:15 am 03:15 Cloudy with Mist and Fog 43 6 43 6 100 100 NNW 5 7 30.03 1017 3 5 N/A
3:35 am 03:35 Cloudy with Mist and Fog 43 6 43 6 100 100 WNW 3 6 30.00 1016 4 6 N/A
3:55 am 03:55 Cloudy with Mist and Fog 43 6 43 6 100 100 NW 3 6 30.00 1016 5 8 N/A
4:15 am 04:15 Cloudy 45 7 45 7 100 100 NNW 6 9 30.00 1016 7 11 N/A
4:35 am 04:35 Cloudy with Mist and Fog 43 6 43 6 100 100 N N/A 30.00 1016 3 5 N/A
4:55 am 04:55 Mostly Cloudy with Mist and Fog 43 6 43 6 100 100 N 3 6 30.03 1017 4 6 N/A
5:15 am 05:15 Cloudy with Mist and Fog 43 6 43 6 100 100 N 8 13 30.03 1017 3 5 N/A
5:35 am 05:35 Cloudy with Mist and Fog 45 7 45 7 100 100 N 6 9 30.03 1017 4 6 N/A
5:55 am 05:55 Cloudy with Mist and Fog 45 7 45 7 100 100 NNW 5 7 30.06 1018 3 5 N/A
6:15 am 06:15 Cloudy with Mist and Fog 45 7 45 7 100 100 NNW 3 6 30.06 1018 4 6 N/A
6:35 am 06:35 Cloudy with Mist and Fog 45 7 45 7 100 100 N N/A 30.06 1018 4 6 N/A
6:55 am 06:55 Cloudy with Mist and Fog 45 7 45 7 100 100 N N/A 30.06 1018 5 8 N/A
7:15 am 07:15 Cloudy with Mist and Fog 45 7 45 7 100 100 N N/A 30.09 1019 5 8 N/A
7:35 am 07:35 Cloudy with Mist and Fog 45 7 45 7 100 100 N N/A 30.09 1019 4 6 N/A
7:55 am 07:55 Cloudy with Mist and Fog 45 7 45 7 100 100 N 7 11 30.09 1019 5 8 N/A
8:15 am 08:15 Mostly Cloudy with Mist and Fog 45 7 45 7 100 100 N 7 11 30.09 1019 5 8 N/A
8:35 am 08:35 Cloudy with Mist and Fog 46 8 46 8 100 100 N 6 9 30.09 1019 5 8 N/A
8:55 am 08:55 Partly Cloudy with Mist and Fog 46 8 46 8 100 100 N 7 11 30.12 1020 5 8 N/A
9:15 am 09:15 Sunny with Mist and Fog 46 8 46 8 100 100 N N/A 30.12 1020 5 8 N/A
9:35 am 09:35 Sunny with Mist and Fog 46 8 46 8 100 100 N N/A 30.12 1020 4 6 N/A
9:55 am 09:55 Sunny with Mist and Fog 46 8 46 8 100 100 N N/A 30.12 1020 4 6 N/A
10:15 am 10:15 Mostly Cloudy with Mist and Fog 46 8 46 8 100 100 N N/A 30.12 1020 2 3 N/A
10:35 am 10:35 Sunny with Mist and Fog 46 8 46 8 100 100 SW 3 6 30.12 1020 4 6 N/A
10:55 am 10:55 Partly Cloudy with Mist and Fog 48 9 48 9 100 100 N N/A 30.12 1020 4 6 N/A
11:15 am 11:15 Sunny 50 10 50 10 100 100 N N/A 30.15 1021 7 11 N/A
11:35 am 11:35 Sunny 52 11 52 11 100 100 N N/A 30.12 1020 10 16 N/A
11:55 am 11:55 Sunny 54 12 54 12 100 100 N N/A 30.12 1020 10 16 N/A
12:15 pm 12:15 Sunny 55 13 54 12 94 94 NW 3 6 30.12 1020 10 16 N/A
12:35 pm 12:35 Sunny 57 14 52 11 82 82 N N/A 30.12 1020 10 16 N/A
12:55 pm 12:55 Sunny 59 15 52 11 77 77 WNW 8 13 30.12 1020 10 16 N/A
1:15 pm 13:15 Sunny 59 15 52 11 77 77 NW 13 20 30.09 1019 10 16 N/A
1:35 pm 13:35 Sunny 59 15 50 10 72 72 NW 9 15 30.12 1020 10 16 N/A
1:55 pm 13:55 Sunny 59 15 52 11 77 77 WNW 7 11 30.09 1019 10 16 N/A
2:15 pm 14:15 Sunny 59 15 52 11 77 77 W 10 17 30.09 1019 10 16 N/A
2:35 pm 14:35 Sunny 59 15 52 11 77 77 WSW 5 7 30.09 1019 10 16 N/A
2:55 pm 14:55 Sunny 61 16 50 10 68 68 SSW 6 9 30.09 1019 10 16 N/A
3:15 pm 15:15 Sunny 61 16 48 9 63 63 W 8 13 30.09 1019 10 16 N/A
3:55 pm 15:55 Sunny 61 16 50 10 68 68 N N/A 30.09 1019 10 16 N/A
4:15 pm 16:15 Sunny 63 17 50 10 64 64 W 6 9 30.09 1019 10 16 N/A
4:35 pm 16:35 Sunny 63 17 48 9 59 59 W 6 9 30.09 1019 10 16 N/A
4:55 pm 16:55 Sunny 63 17 46 8 56 56 WNW 10 17 30.09 1019 10 16 N/A
5:15 pm 17:15 Sunny 63 17 45 7 52 52 W 8 13 30.09 1019 10 16 N/A
5:35 pm 17:35 Sunny 63 17 45 7 52 52 W 7 11 30.09 1019 10 16 N/A
5:55 pm 17:55 Sunny 63 17 46 8 56 56 W 3 6 30.09 1019 10 16 N/A
6:15 pm 18:15 Sunny 63 17 46 8 56 56 W 3 6 30.09 1019 10 16 N/A
6:35 pm 18:35 Sunny 63 17 46 8 56 56 WSW 5 7 30.09 1019 10 16 N/A
6:55 pm 18:55 Sunny 61 16 46 8 59 59 N N/A 30.09 1019 10 16 N/A
7:15 pm 19:15 Clear 59 15 45 7 59 59 N N/A 30.12 1020 10 16 N/A
7:35 pm 19:35 Clear 57 14 45 7 63 63 N N/A 30.12 1020 10 16 N/A
7:55 pm 19:55 Clear 55 13 45 7 67 67 N N/A 30.12 1020 10 16 N/A
8:15 pm 20:15 Clear 54 12 45 7 72 72 N 3 6 30.15 1021 10 16 N/A
8:35 pm 20:35 Clear 52 11 43 6 72 72 N N/A 30.15 1021 10 16 N/A
8:55 pm 20:55 Clear 52 11 43 6 72 72 N 5 7 30.15 1021 10 16 N/A
9:15 pm 21:15 Clear 52 11 43 6 72 72 N 6 9 30.21 1023 10 16 N/A
9:35 pm 21:35 Clear 54 12 41 5 63 63 N 14 22 30.18 1022 10 16 N/A
9:55 pm 21:55 Clear 54 12 41 5 63 63 N 8 13 30.21 1023 10 16 N/A
10:15 pm 22:15 Clear 54 12 39 4 58 58 N 7 11 30.24 1024 10 16 N/A
10:35 pm 22:35 Clear 54 12 37 3 54 54 N 10 17 30.24 1024 10 16 N/A
10:55 pm 22:55 Clear 52 11 34 1 50 50 NNW 15 24 30.30 1026 10 16 N/A
11:15 pm 23:15 Clear 50 10 32 undefined 50 50 N 12 19 30.30 1026 10 16 N/A
11:35 pm 23:35 Clear 50 10 30 -1 47 47 N 14 22 30.30 1026 10 16 N/A
11:55 pm 23:55 Clear 48 9 30 -1 50 50 N 9 15 30.30 1026 10 16 N/A

Powered by AerisWeather